Regional Weather Roundup
Issued by NWS Little Rock, AR

Home | Current Version | Previous Version | Graphics & Text | Print | Product List | Glossary On
Versions: 1 2 3 4 5 6 7 8 9 10 11 12 13 14 15 16 17 18 19 20 21 22 23 24 25 26 27 28 29 30 31 32 33 34 35 36 37 38 39 40 41 42 43 44 45 46 47 48 49 50
000
ASUS44 KLZK 271305
RWRLZK

WEATHER ROUNDUP FOR ARKANSAS
NATIONAL WEATHER SERVICE LITTLE ROCK AR
700 AM CST FRI FEB 27 2015

NOTE: "FAIR" INDICATES FEW OR NO CLOUDS BELOW 12,000 FEET WITH NO
SIGNIFICANT WEATHER AND/OR OBSTRUCTIONS TO VISIBILITY.

ARZ001-003-010-029-271400-
NORTHWEST ARKANSAS

CITY           SKY/WX    TMP DP  RH WIND       PRES   REMARKS
FAYETTEVILLE   CLEAR     11   4  73 NE7       30.51R WCI   0
FORT SMITH     PTCLDY    19   9  65 E9        30.55R WCI   8
HARRISON       CLEAR      8   3  80 CALM      30.53R
BENTONVILLE    CLEAR     10   1  67 NE9       30.50F WCI  -2
ROGERS         CLEAR      9   2  73 NE10      30.50F WCI  -5
SILOAM SPGS    CLEAR     10   0  61 E9G16     30.51F WCI  -2
HIGHFILL       CLEAR     11   3  70 NE12      30.50R WCI  -3
SPRINGDALE     CLEAR     12   3  67 NE9       30.52R WCI   0
$$

ARZ004-005-016-271400-
NORTH CENTRAL ARKANSAS

CITY           SKY/WX    TMP DP  RH WIND       PRES   REMARKS
BATESVILLE     CLEAR     16   3  57 N7        30.59R WCI   6
FLIPPIN        CLEAR     12   1  62 NE9       30.57R WCI   0
MTN HOME       CLEAR      9   2  73 VRB3      30.56R
$$

ARZ040-041-271400-
WEST CENTRAL ARKANSAS

CITY           SKY/WX    TMP DP  RH WIND       PRES   REMARKS
MENA           CLEAR     21  12  68 E6        30.47R WCI  14
MOUNT IDA      CLEAR     20   9  62 VRB3      30.48R
$$

ARZ009-017-025-026-028-271400-
NORTHEAST ARKANSAS

CITY           SKY/WX    TMP DP  RH WIND       PRES   REMARKS
CORNING        FAIR      14   3  62 N15       30.62R WCI  -1
JONESBORO      CLEAR     15   8  73 N9        30.59R WCI   3
NEWPORT        CLEAR     18   7  62 N17       30.61R WCI   3
WALNUT RIDGE   FAIR      14   0  52 N15       30.61R WCI  -1
BLYTHEVILLE    PTCLDY    15   7  70 N18       30.59R WCI  -2
$$

ARZ022-023-033-042-044-271400-
CENTRAL ARKANSAS

CITY           SKY/WX    TMP DP  RH WIND       PRES   REMARKS
LITTLE ROCK    PTCLDY    21   9  59 N16       30.57R WCI   7
N LITTLE ROCK    N/A     18  12  78 NE12G22   30.57R WCI   5
JACKSONVILLE   CLEAR     19   8  62 N10       30.56R WCI   7
SEARCY         CLEAR     17   9  70 N10       30.59R WCI   5
HOT SPRINGS    CLEAR     20   9  62 NE9       30.52R WCI   9
RUSSELLVILLE   CLEAR     18   6  59 N3        30.56R
CLINTON        FAIR      16   5  62 N3        30.59R
$$

ARZ036-271400-
EAST ARKANSAS

CITY           SKY/WX    TMP DP  RH WIND       PRES   REMARKS
WEST MEMPHIS   PTCLDY    20  13  74 N13       30.55R WCI   7
$$

ARZ050-053-066-070-073-271400-
SOUTHWEST ARKANSAS

CITY           SKY/WX    TMP DP  RH WIND       PRES   REMARKS
ARKADELPHIA    FAIR      23  14  68 N6        30.56R WCI  16
CAMDEN         CLEAR     21  14  73 MISG      30.53R
TEXARKANA      CLEAR     24  14  65 E9        30.49R WCI  14
EL DORADO      CLEAR     22  15  75 N8        30.49R WCI  12
DE QUEEN       CLEAR     23  11  60 NE8       30.50R WCI  14
$$

ARZ056-057-069-271400-
SOUTHEAST ARKANSAS

CITY           SKY/WX    TMP DP  RH WIND       PRES   REMARKS
PINE BLUFF     PTCLDY    22  15  75 N12       30.53R WCI  10
STUTTGART      CLOUDY    23  16  74 N15       30.52S WCI  10
MONTICELLO     CLOUDY    25  16  68 NE10G18   30.49R WCI  15

$$





USA.gov is the U.S. government's official web portal to all federal, state and local government web resources and services.